TimeCDT,TemperatureF,Dew PointF,Humidity,Sea Level PressureIn,VisibilityMPH,Wind Direction,Wind SpeedMPH,Gust SpeedMPH,PrecipitationIn,Events,Conditions,WindDirDegrees,DateUTC
12:56 AM,79.0,75.9,90,29.93,10.0,Calm,Calm,-,N/A,,Clear,0,2013-06-28 05:56:00
1:56 AM,79.0,75.9,90,29.93,10.0,WSW,4.6,-,N/A,,Clear,240,2013-06-28 06:56:00
2:56 AM,80.1,75.9,87,29.90,10.0,WSW,4.6,-,N/A,,Clear,250,2013-06-28 07:56:00
3:56 AM,79.0,75.0,88,29.89,10.0,West,3.5,-,N/A,,Clear,260,2013-06-28 08:56:00
4:56 AM,78.1,75.0,90,29.90,8.0,Calm,Calm,-,N/A,,Clear,0,2013-06-28 09:56:00
5:56 AM,78.1,75.0,90,29.91,7.0,SW,4.6,-,N/A,,Mostly Cloudy,230,2013-06-28 10:56:00
6:56 AM,78.1,75.9,93,29.93,6.0,Calm,Calm,-,N/A,,Mostly Cloudy,0,2013-06-28 11:56:00
7:56 AM,81.0,75.0,82,29.94,10.0,West,5.8,-,N/A,,Mostly Cloudy,280,2013-06-28 12:56:00
8:56 AM,84.9,73.9,69,29.94,10.0,West,10.4,-,N/A,,Mostly Cloudy,280,2013-06-28 13:56:00
9:56 AM,88.0,73.9,63,29.92,10.0,WNW,9.2,-,N/A,,Mostly Cloudy,290,2013-06-28 14:56:00
10:56 AM,90.0,73.0,57,29.92,10.0,West,9.2,17.3,N/A,,Mostly Cloudy,280,2013-06-28 15:56:00
11:56 AM,91.0,73.0,55,29.90,10.0,West,8.1,-,N/A,,Mostly Cloudy,270,2013-06-28 16:56:00
12:56 PM,91.0,72.0,53,29.88,10.0,WNW,8.1,-,N/A,,Mostly Cloudy,290,2013-06-28 17:56:00
1:56 PM,93.0,73.0,52,29.85,10.0,West,10.4,-,N/A,,Mostly Cloudy,260,2013-06-28 18:56:00
2:56 PM,93.9,73.0,51,29.82,10.0,WSW,8.1,-,N/A,,Scattered Clouds,250,2013-06-28 19:56:00
3:56 PM,93.9,73.0,51,29.79,10.0,WSW,6.9,-,N/A,,Mostly Cloudy,250,2013-06-28 20:56:00
4:56 PM,91.9,75.9,59,29.80,10.0,SSW,6.9,-,N/A,,Mostly Cloudy,200,2013-06-28 21:56:00
5:56 PM,89.1,78.1,70,29.79,10.0,SSW,10.4,-,N/A,,Mostly Cloudy,210,2013-06-28 22:56:00
6:56 PM,89.1,77.0,67,29.78,10.0,SSW,10.4,-,N/A,,Mostly Cloudy,210,2013-06-28 23:56:00
7:56 PM,87.1,73.9,65,29.77,10.0,SW,8.1,-,N/A,,Mostly Cloudy,230,2013-06-29 00:56:00
8:56 PM,84.0,73.9,72,29.79,10.0,SW,5.8,-,N/A,,Mostly Cloudy,220,2013-06-29 01:56:00
9:56 PM,82.9,75.0,77,29.82,10.0,Calm,Calm,-,N/A,,Mostly Cloudy,0,2013-06-29 02:56:00
10:56 PM,82.9,75.0,77,29.81,10.0,SW,5.8,-,N/A,,Overcast,220,2013-06-29 03:56:00
11:56 PM,81.0,75.0,82,29.80,10.0,West,3.5,-,N/A,,Partly Cloudy,270,2013-06-29 04:56:00